UAL2270 KDEN-KAUS

Flight info

Callsign UAL2270
Flight time 1h 39m
Altitude 37000
Route SLEEK2 SLEEK PNH J17 ABI DILLO LAIKS4
Aircraft A320/M-SDE3FGHIRWY/LB1

Departure

Time 2026-04-30 20:48
Airport Denver International Airport (KDEN)

Arrival

Time 2026-04-30 22:27
Airport Austin Bergstrom International Airport (KAUS)
Time Latitude Longitude Altitude Speed Heading
2026-04-30 20:31 39.85933 -104.67612 5377 ft 0 kts 180°
2026-04-30 20:37 39.85938 -104.67612 5376 ft 3 kts 180°
2026-04-30 20:37 39.85964 -104.67612 5378 ft 4 kts 180°
2026-04-30 20:37 39.85992 -104.67612 5376 ft 4 kts 180°
2026-04-30 20:38 39.86018 -104.67612 5377 ft 3 kts 180°
2026-04-30 20:38 39.86023 -104.67612 5374 ft 0 kts 180°
2026-04-30 20:40 39.86022 -104.67611 5374 ft 1 kts 176°
2026-04-30 20:40 39.86014 -104.67597 5376 ft 3 kts 111°
2026-04-30 20:41 39.86058 -104.67496 5376 ft 10 kts 57°
2026-04-30 20:41 39.86065 -104.67393 5375 ft 14 kts 91°
2026-04-30 20:41 39.86064 -104.67260 5379 ft 15 kts 90°
2026-04-30 20:41 39.86063 -104.67114 5378 ft 17 kts 90°
2026-04-30 20:42 39.86062 -104.66954 5375 ft 18 kts 90°
2026-04-30 20:42 39.86061 -104.66789 5378 ft 19 kts 90°
2026-04-30 20:42 39.86018 -104.66499 5380 ft 15 kts 101°
2026-04-30 20:43 39.86016 -104.66366 5384 ft 15 kts 90°
2026-04-30 20:43 39.86033 -104.66244 5386 ft 13 kts 44°
2026-04-30 20:43 39.86136 -104.66229 5383 ft 18 kts
2026-04-30 20:44 39.86410 -104.66225 5382 ft 20 kts 360°
2026-04-30 20:44 39.86558 -104.66224 5377 ft 22 kts
2026-04-30 20:44 39.86866 -104.66221 5371 ft 22 kts
2026-04-30 20:45 39.87185 -104.66216 5364 ft 22 kts
2026-04-30 20:45 39.87347 -104.66214 5362 ft 24 kts
2026-04-30 20:45 39.87509 -104.66212 5361 ft 19 kts 360°
2026-04-30 20:46 39.87756 -104.66166 5360 ft 8 kts 93°
2026-04-30 20:46 39.87753 -104.66022 5358 ft 40 kts 90°
2026-04-30 20:47 39.87741 -104.64180 5334 ft 155 kts 90°
2026-04-30 20:47 39.87733 -104.62628 5568 ft 178 kts 90°
2026-04-30 20:48 39.87002 -104.59504 7102 ft 183 kts 108°
2026-04-30 20:48 39.86520 -104.57915 7431 ft 198 kts 109°
2026-04-30 20:48 39.85988 -104.56149 7606 ft 222 kts 109°
2026-04-30 20:48 39.85408 -104.54198 7869 ft 246 kts 109°
2026-04-30 20:49 39.84764 -104.52027 8247 ft 266 kts 109°
2026-04-30 20:49 39.84089 -104.49747 8935 ft 274 kts 109°
2026-04-30 20:49 39.83400 -104.47423 9728 ft 276 kts 109°
2026-04-30 20:50 39.81948 -104.42497 10467 ft 313 kts 110°
2026-04-30 20:50 39.80904 -104.39937 10817 ft 329 kts 130°
2026-04-30 20:50 39.79069 -104.38109 11416 ft 337 kts 152°
2026-04-30 20:50 39.76909 -104.36975 12085 ft 341 kts 162°
2026-04-30 20:51 39.74595 -104.36227 12763 ft 345 kts 171°
2026-04-30 20:51 39.69809 -104.36814 14136 ft 350 kts 195°
2026-04-30 20:51 39.67486 -104.37800 14728 ft 353 kts 202°
2026-04-30 20:52 39.65186 -104.38968 15302 ft 357 kts 203°
2026-04-30 20:52 39.62863 -104.40138 15856 ft 360 kts 203°
2026-04-30 20:52 39.58151 -104.42541 16961 ft 368 kts 204°
2026-04-30 20:53 39.55794 -104.43752 17558 ft 370 kts 203°
2026-04-30 20:53 39.53300 -104.44623 18196 ft 375 kts 191°
2026-04-30 20:53 39.50679 -104.44842 18750 ft 381 kts 180°
2026-04-30 20:54 39.45387 -104.43735 19863 ft 388 kts 172°
2026-04-30 20:54 39.42727 -104.43085 20431 ft 390 kts 172°
2026-04-30 20:54 39.40047 -104.42435 20983 ft 393 kts 173°
2026-04-30 20:55 39.34644 -104.41136 22039 ft 397 kts 173°
2026-04-30 20:55 39.31918 -104.40481 22580 ft 399 kts 173°
2026-04-30 20:55 39.29185 -104.39823 23108 ft 401 kts 173°
2026-04-30 20:56 39.23663 -104.38488 24037 ft 406 kts 174°
2026-04-30 20:56 39.20873 -104.37814 24432 ft 409 kts 174°
2026-04-30 20:56 39.15241 -104.36465 25212 ft 414 kts 174°
2026-04-30 20:57 39.12403 -104.35741 25564 ft 418 kts 173°
2026-04-30 20:57 39.09556 -104.34896 25941 ft 422 kts 172°
2026-04-30 20:57 39.06701 -104.33964 26300 ft 425 kts 171°
2026-04-30 20:58 39.00950 -104.32008 26999 ft 430 kts 172°
2026-04-30 20:58 38.98047 -104.31040 27352 ft 432 kts 172°
2026-04-30 20:58 38.95124 -104.30086 27688 ft 435 kts 173°
2026-04-30 20:58 38.92220 -104.29155 28018 ft 437 kts 173°
2026-04-30 20:59 38.86288 -104.27283 28743 ft 441 kts 175°
2026-04-30 20:59 38.83301 -104.26342 29081 ft 443 kts 175°
2026-04-30 21:00 38.77280 -104.24430 29715 ft 448 kts 175°
2026-04-30 21:00 38.71222 -104.22501 30479 ft 448 kts 176°
2026-04-30 21:01 38.65209 -104.20587 31319 ft 443 kts 178°
2026-04-30 21:01 38.62216 -104.19637 31713 ft 442 kts 179°
2026-04-30 21:01 38.56256 -104.17757 32502 ft 440 kts 179°
2026-04-30 21:02 38.53286 -104.16741 32890 ft 448 kts 174°
2026-04-30 21:02 38.50370 -104.15165 33285 ft 464 kts 165°
2026-04-30 21:02 38.47601 -104.12897 33597 ft 483 kts 153°
2026-04-30 21:02 38.45000 -104.10108 33915 ft 490 kts 151°
2026-04-30 21:03 38.42408 -104.07287 34251 ft 490 kts 151°
2026-04-30 21:03 38.39811 -104.04465 34518 ft 490 kts 151°
2026-04-30 21:03 38.37212 -104.01654 34808 ft 490 kts 151°
2026-04-30 21:03 38.34607 -103.98850 35116 ft 490 kts 151°
2026-04-30 21:04 38.32003 -103.96061 35405 ft 489 kts 151°
2026-04-30 21:04 38.29402 -103.93283 35688 ft 489 kts 151°
2026-04-30 21:04 38.24192 -103.87713 36159 ft 489 kts 151°
2026-04-30 21:05 38.21586 -103.84930 36435 ft 489 kts 151°
2026-04-30 21:05 38.18978 -103.82147 36678 ft 489 kts 150°
2026-04-30 21:05 38.16370 -103.79367 36923 ft 489 kts 150°
2026-04-30 21:05 38.13795 -103.76621 37117 ft 490 kts 150°
2026-04-30 21:06 38.08527 -103.71026 37153 ft 497 kts 150°
2026-04-30 21:06 38.02928 -103.66154 37172 ft 482 kts 162°
2026-04-30 21:07 37.97114 -103.61896 37182 ft 482 kts 162°
2026-04-30 21:07 37.91296 -103.57659 37112 ft 482 kts 162°
2026-04-30 21:08 37.85479 -103.53417 37091 ft 483 kts 162°
2026-04-30 21:08 37.79658 -103.49169 37108 ft 483 kts 162°
2026-04-30 21:09 37.73834 -103.44936 37118 ft 483 kts 162°
2026-04-30 21:09 37.68007 -103.40707 37111 ft 483 kts 162°
2026-04-30 21:10 37.62174 -103.36479 37106 ft 483 kts 162°
2026-04-30 21:10 37.57329 -103.32977 37101 ft 483 kts 162°
2026-04-30 21:11 37.51487 -103.28776 37095 ft 483 kts 162°
2026-04-30 21:11 37.45651 -103.24574 37097 ft 484 kts 162°
2026-04-30 21:12 37.39816 -103.20362 37060 ft 483 kts 163°
2026-04-30 21:12 37.33984 -103.16169 37073 ft 483 kts 163°
2026-04-30 21:13 37.28150 -103.11997 37088 ft 482 kts 163°
2026-04-30 21:13 37.22316 -103.07830 37030 ft 482 kts 163°
2026-04-30 21:14 37.16498 -103.03673 37058 ft 481 kts 163°
2026-04-30 21:14 37.10690 -102.99528 37073 ft 480 kts 164°
2026-04-30 21:15 37.04889 -102.95401 37069 ft 479 kts 164°
2026-04-30 21:15 36.99094 -102.91287 37027 ft 478 kts 164°
2026-04-30 21:16 36.93353 -102.87217 37050 ft 477 kts 164°
2026-04-30 21:16 36.87588 -102.83138 37052 ft 476 kts 165°
2026-04-30 21:17 36.81825 -102.79073 37052 ft 475 kts 165°
2026-04-30 21:17 36.76071 -102.75017 37001 ft 475 kts 165°
2026-04-30 21:18 36.70314 -102.70961 37021 ft 475 kts 165°
2026-04-30 21:18 36.64555 -102.66908 37028 ft 475 kts 165°
2026-04-30 21:19 36.58793 -102.62865 37037 ft 475 kts 165°
2026-04-30 21:19 36.53029 -102.58831 37019 ft 475 kts 165°
2026-04-30 21:20 36.47267 -102.54807 37039 ft 475 kts 165°
2026-04-30 21:20 36.41510 -102.50784 37042 ft 475 kts 165°
2026-04-30 21:21 36.35792 -102.46792 37047 ft 474 kts 165°
2026-04-30 21:22 36.27163 -102.40803 37047 ft 474 kts 165°
2026-04-30 21:23 36.15646 -102.32826 37068 ft 475 kts 165°
2026-04-30 21:23 36.06999 -102.26841 37055 ft 474 kts 165°
2026-04-30 21:24 36.01242 -102.22873 37062 ft 474 kts 165°
2026-04-30 21:24 35.95484 -102.18913 37064 ft 474 kts 165°
2026-04-30 21:25 35.86888 -102.13013 37010 ft 473 kts 165°
2026-04-30 21:26 35.78267 -102.07096 37096 ft 473 kts 165°
2026-04-30 21:27 35.69642 -102.01198 37087 ft 473 kts 165°
2026-04-30 21:27 35.63879 -101.97276 37025 ft 474 kts 166°
2026-04-30 21:28 35.55221 -101.91383 37015 ft 475 kts 166°
2026-04-30 21:29 35.46587 -101.85506 37040 ft 475 kts 166°
2026-04-30 21:30 35.32109 -101.75708 37091 ft 476 kts 166°
2026-04-30 21:31 35.17636 -101.65895 37047 ft 477 kts 165°
2026-04-30 21:32 35.08965 -101.59877 37001 ft 478 kts 164°
2026-04-30 21:32 35.03172 -101.55873 37014 ft 479 kts 165°
2026-04-30 21:33 34.94467 -101.49887 36991 ft 479 kts 164°
2026-04-30 21:34 34.88697 -101.45940 37003 ft 480 kts 164°
2026-04-30 21:34 34.79955 -101.39954 37030 ft 481 kts 164°
2026-04-30 21:35 34.74127 -101.35973 37034 ft 481 kts 164°
2026-04-30 21:35 34.68283 -101.31981 37003 ft 482 kts 164°
2026-04-30 21:36 34.62434 -101.27999 37028 ft 483 kts 164°
2026-04-30 21:37 34.50695 -101.20010 37035 ft 484 kts 164°
2026-04-30 21:37 34.44815 -101.16031 37009 ft 484 kts 164°
2026-04-30 21:38 34.38931 -101.12064 37031 ft 484 kts 164°
2026-04-30 21:38 34.33094 -101.08115 37043 ft 484 kts 164°
2026-04-30 21:39 34.27215 -101.04148 37047 ft 484 kts 164°
2026-04-30 21:39 34.21336 -101.00188 37008 ft 483 kts 164°
2026-04-30 21:40 34.15459 -100.96245 37031 ft 483 kts 164°
2026-04-30 21:40 34.09587 -100.92300 37046 ft 483 kts 164°
2026-04-30 21:41 34.03709 -100.88360 37045 ft 483 kts 164°
2026-04-30 21:41 33.97839 -100.84437 37008 ft 482 kts 164°
2026-04-30 21:42 33.91964 -100.80521 37022 ft 482 kts 164°
2026-04-30 21:42 33.86094 -100.76605 37032 ft 483 kts 164°
2026-04-30 21:43 33.80260 -100.72716 37033 ft 482 kts 164°
2026-04-30 21:43 33.74386 -100.68810 36997 ft 482 kts 164°
2026-04-30 21:44 33.68515 -100.64914 37018 ft 482 kts 163°
2026-04-30 21:44 33.62640 -100.61020 37025 ft 482 kts 163°
2026-04-30 21:45 33.56769 -100.57128 37027 ft 482 kts 163°
2026-04-30 21:45 33.50894 -100.53248 37026 ft 482 kts 164°
2026-04-30 21:46 33.45012 -100.49382 37005 ft 482 kts 163°
2026-04-30 21:46 33.39133 -100.45526 37020 ft 482 kts 163°
2026-04-30 21:47 33.33255 -100.41660 37022 ft 482 kts 163°
2026-04-30 21:47 33.27423 -100.37821 37025 ft 482 kts 163°
2026-04-30 21:48 33.21551 -100.33972 37015 ft 481 kts 163°
2026-04-30 21:48 33.15685 -100.30135 37033 ft 481 kts 163°
2026-04-30 21:49 33.09822 -100.26309 37035 ft 480 kts 163°
2026-04-30 21:49 33.03962 -100.22493 37037 ft 480 kts 163°
2026-04-30 21:50 32.98104 -100.18668 37039 ft 480 kts 163°
2026-04-30 21:50 32.92246 -100.14852 37035 ft 480 kts 164°
2026-04-30 21:51 32.86389 -100.11062 37035 ft 479 kts 164°
2026-04-30 21:51 32.80524 -100.07266 37029 ft 480 kts 163°
2026-04-30 21:52 32.74669 -100.03464 36986 ft 480 kts 163°
2026-04-30 21:52 32.68812 -99.99676 37012 ft 479 kts 163°
2026-04-30 21:53 32.62995 -99.95922 37022 ft 479 kts 164°
2026-04-30 21:53 32.57141 -99.92146 37031 ft 479 kts 164°
2026-04-30 21:54 32.51292 -99.88380 37037 ft 478 kts 164°
2026-04-30 21:54 32.45445 -99.84615 37008 ft 478 kts 163°
2026-04-30 21:55 32.39611 -99.80820 37024 ft 479 kts 163°
2026-04-30 21:55 32.33773 -99.77009 37004 ft 479 kts 163°
2026-04-30 21:56 32.27941 -99.73210 37003 ft 479 kts 163°
2026-04-30 21:56 32.22099 -99.69419 36972 ft 479 kts 163°
2026-04-30 21:57 32.16296 -99.65663 36977 ft 479 kts 163°
2026-04-30 21:57 32.10454 -99.61891 36991 ft 479 kts 163°
2026-04-30 21:58 32.04610 -99.58124 37004 ft 479 kts 163°
2026-04-30 21:58 31.98768 -99.54363 37017 ft 479 kts 163°
2026-04-30 21:59 31.92932 -99.50596 37013 ft 478 kts 162°
2026-04-30 22:00 31.84179 -99.44977 37024 ft 478 kts 162°
2026-04-30 22:00 31.75423 -99.39369 37029 ft 478 kts 162°
2026-04-30 22:01 31.69586 -99.35630 36961 ft 478 kts 162°
2026-04-30 22:01 31.63748 -99.31901 36969 ft 478 kts 162°
2026-04-30 22:02 31.57888 -99.28163 36787 ft 487 kts 162°
2026-04-30 22:02 31.54877 -99.26257 36536 ft 496 kts 162°
2026-04-30 22:02 31.51830 -99.24326 36286 ft 500 kts 162°
2026-04-30 22:03 31.48768 -99.22378 36040 ft 502 kts 162°
2026-04-30 22:03 31.45700 -99.20418 35753 ft 503 kts 161°
2026-04-30 22:03 31.42621 -99.18452 35512 ft 504 kts 161°
2026-04-30 22:03 31.39541 -99.16488 35277 ft 505 kts 161°
2026-04-30 22:04 31.36451 -99.14521 35040 ft 506 kts 161°
2026-04-30 22:04 31.33364 -99.12558 34560 ft 503 kts 161°
2026-04-30 22:04 31.27267 -99.08684 33206 ft 498 kts 161°
2026-04-30 22:05 31.24289 -99.06797 32227 ft 491 kts 161°
2026-04-30 22:05 31.21278 -99.04897 30893 ft 492 kts 161°
2026-04-30 22:05 31.18287 -99.03012 30239 ft 482 kts 160°
2026-04-30 22:05 31.15385 -99.01175 29736 ft 468 kts 160°
2026-04-30 22:06 31.12562 -98.99387 29122 ft 455 kts 160°
2026-04-30 22:06 31.07113 -98.95941 27978 ft 441 kts 160°
2026-04-30 22:06 31.04409 -98.94250 27404 ft 441 kts 160°
2026-04-30 22:07 31.01699 -98.92558 26827 ft 442 kts 160°
2026-04-30 22:07 30.98991 -98.90868 26260 ft 442 kts 160°
2026-04-30 22:07 30.96286 -98.89175 25703 ft 441 kts 160°
2026-04-30 22:07 30.93582 -98.87476 25182 ft 442 kts 159°
2026-04-30 22:08 30.90880 -98.85778 24668 ft 441 kts 159°
2026-04-30 22:08 30.88213 -98.84102 24171 ft 441 kts 159°
2026-04-30 22:08 30.85514 -98.82409 23659 ft 440 kts 159°
2026-04-30 22:08 30.82870 -98.80599 23097 ft 447 kts 149°
2026-04-30 22:09 30.80680 -98.77985 22554 ft 459 kts 129°
2026-04-30 22:09 30.79322 -98.74632 22087 ft 457 kts 107°
2026-04-30 22:09 30.78769 -98.71020 21311 ft 452 kts 99°
2026-04-30 22:09 30.78382 -98.67440 20693 ft 440 kts 98°
2026-04-30 22:10 30.78040 -98.63946 20062 ft 430 kts 98°
2026-04-30 22:10 30.77716 -98.60523 19431 ft 425 kts 98°
2026-04-30 22:10 30.77388 -98.57138 18784 ft 429 kts 98°
2026-04-30 22:10 30.77038 -98.53682 18220 ft 430 kts 98°
2026-04-30 22:11 30.76328 -98.46927 16837 ft 414 kts 99°
2026-04-30 22:11 30.75865 -98.43669 16108 ft 402 kts 108°
2026-04-30 22:11 30.74921 -98.40691 15764 ft 387 kts 120°
2026-04-30 22:12 30.73771 -98.37845 15654 ft 390 kts 119°
2026-04-30 22:12 30.72638 -98.34976 15455 ft 390 kts 118°
2026-04-30 22:12 30.71522 -98.32118 15245 ft 387 kts 118°
2026-04-30 22:12 30.70415 -98.29275 15036 ft 385 kts 118°
2026-04-30 22:13 30.69324 -98.26487 14819 ft 383 kts 118°
2026-04-30 22:13 30.68214 -98.23668 14620 ft 383 kts 118°
2026-04-30 22:13 30.67112 -98.20879 14427 ft 372 kts 118°
2026-04-30 22:13 30.66071 -98.18234 14195 ft 351 kts 118°
2026-04-30 22:14 30.65070 -98.15687 13724 ft 342 kts 118°
2026-04-30 22:14 30.64091 -98.13216 13450 ft 336 kts 119°
2026-04-30 22:14 30.63109 -98.10760 13193 ft 334 kts 119°
2026-04-30 22:14 30.62464 -98.09149 12974 ft 332 kts 119°
2026-04-30 22:15 30.61182 -98.05943 12645 ft 329 kts 118°
2026-04-30 22:15 30.60228 -98.03544 12435 ft 327 kts 118°
2026-04-30 22:15 30.59277 -98.01156 12118 ft 325 kts 118°
2026-04-30 22:15 30.58331 -97.98789 11783 ft 322 kts 118°
2026-04-30 22:16 30.57388 -97.96436 11441 ft 320 kts 120°
2026-04-30 22:16 30.56215 -97.94286 11122 ft 312 kts 135°
2026-04-30 22:17 30.51051 -97.90427 10505 ft 292 kts 158°
2026-04-30 22:17 30.49235 -97.89401 10334 ft 290 kts 158°
2026-04-30 22:17 30.45624 -97.87361 9894 ft 289 kts 158°
2026-04-30 22:18 30.43807 -97.86335 9455 ft 288 kts 157°
2026-04-30 22:18 30.40851 -97.84660 8772 ft 283 kts 156°
2026-04-30 22:19 30.37301 -97.82657 7982 ft 285 kts 156°
2026-04-30 22:19 30.35513 -97.81648 7618 ft 284 kts 155°
2026-04-30 22:19 30.32052 -97.79691 6807 ft 271 kts 154°
2026-04-30 22:20 30.30414 -97.78766 6636 ft 253 kts 154°
2026-04-30 22:20 30.27294 -97.77247 6392 ft 241 kts 169°
2026-04-30 22:20 30.25640 -97.77129 6267 ft 243 kts 178°
2026-04-30 22:21 30.23961 -97.77089 6025 ft 241 kts 176°
2026-04-30 22:21 30.22293 -97.77047 5755 ft 238 kts 176°
2026-04-30 22:21 30.20647 -97.77005 5490 ft 236 kts 177°
2026-04-30 22:21 30.19014 -97.76961 5222 ft 234 kts 176°
2026-04-30 22:22 30.17396 -97.76918 4965 ft 232 kts 176°
2026-04-30 22:22 30.15782 -97.76873 4657 ft 233 kts 176°
2026-04-30 22:22 30.14153 -97.76826 4340 ft 237 kts 176°
2026-04-30 22:22 30.12489 -97.76782 4021 ft 242 kts 176°
2026-04-30 22:23 30.10878 -97.76456 3737 ft 235 kts 156°
2026-04-30 22:23 30.09561 -97.75466 3394 ft 218 kts 133°
2026-04-30 22:23 30.08751 -97.74100 3109 ft 197 kts 112°
2026-04-30 22:23 30.08428 -97.72618 2901 ft 186 kts 94°
2026-04-30 22:24 30.08531 -97.71149 2632 ft 183 kts 76°
2026-04-30 22:24 30.09015 -97.69830 2371 ft 173 kts 59°
2026-04-30 22:24 30.09758 -97.68825 2173 ft 159 kts 42°
2026-04-30 22:24 30.10667 -97.68141 1967 ft 154 kts 30°
2026-04-30 22:25 30.11674 -97.67769 1750 ft 151 kts 14°
2026-04-30 22:25 30.12700 -97.67708 1555 ft 149 kts
2026-04-30 22:25 30.13721 -97.67736 1349 ft 146 kts
2026-04-30 22:25 30.14724 -97.67779 1177 ft 144 kts
2026-04-30 22:26 30.16698 -97.67821 785 ft 142 kts
2026-04-30 22:26 30.17693 -97.67844 624 ft 144 kts
2026-04-30 22:26 30.18668 -97.67866 529 ft 129 kts 359°
2026-04-30 22:27 30.19407 -97.67885 528 ft 76 kts 358°
2026-04-30 22:27 30.19735 -97.67893 527 ft 28 kts 360°
2026-04-30 22:27 30.19886 -97.67669 527 ft 18 kts 91°
2026-04-30 22:28 30.19891 -97.67398 527 ft 15 kts 89°
2026-04-30 22:28 30.19934 -97.67333 527 ft 14 kts
2026-04-30 22:29 30.20164 -97.67255 527 ft 15 kts 359°
2026-04-30 22:29 30.20261 -97.67258 527 ft 12 kts 358°
2026-04-30 22:30 30.20274 -97.67118 527 ft 1 kts 154°
2026-04-30 22:31 30.20273 -97.67117 527 ft 0 kts 154°